When you browse on this site, cookies collect data to enhance your experience and personalize the content and advertising you see.
Visit our Privacy Policy to learn more. By continuing to use the site, you agree to this use of cookies and data.
  • In Latvia
  • List of Countries
  • For 7 days
  • Water Temperature
  • Weather Map
  • Weather Widgets
  • user-avatar
    Login

    Hourly Weather Yulara

    Today, 19 October, Saturday

    Time Temperature Precipitation Wind Pressure Humidity
    00:00 +27°C° 0 mm 3 mps 720 mmHg 24%
    01:00 +25°C° 0 mm 2 mps 719 mmHg 27%
    02:00 +23°C° 0 mm 1 mps 718 mmHg 31%
    03:00 +21°C° 0 mm 1 mps 718 mmHg 33%
    04:00 +21°C° 0 mm 1 mps 718 mmHg 33%
    05:00 +21°C° 0 mm 1 mps 718 mmHg 33%
    06:00 +20°C° 0 mm 2 mps 719 mmHg 32%
    07:00 +25°C° 0 mm 2 mps 720 mmHg 27%
    08:00 +28°C° 0 mm 2 mps 720 mmHg 22%
    09:00 +32°C° 0 mm 1 mps 721 mmHg 17%
    10:00 +34°C° 0 mm 2 mps 721 mmHg 16%
    11:00 +36°C° 0 mm 2 mps 721 mmHg 16%
    12:00 +38°C° 0 mm 3 mps 720 mmHg 15%
    13:00 +38°C° 0 mm 4 mps 720 mmHg 15%
    14:00 +38°C° 0 mm 4 mps 719 mmHg 15%
    15:00 +38°C° 0 mm 4 mps 719 mmHg 14%
    16:00 +36°C° 0 mm 6 mps 719 mmHg 16%
    17:00 +34°C° 0 mm 8 mps 720 mmHg 19%
    18:00 +32°C° 0 mm 10 mps 720 mmHg 22%
    19:00 +31°C° 0 mm 8 mps 721 mmHg 22%
    20:00 +30°C° 0 mm 6 mps 721 mmHg 23%
    21:00 +29°C° 0 mm 4 mps 722 mmHg 24%
    22:00 +28°C° 0 mm 4 mps 722 mmHg 26%
    23:00 +26°C° 0 mm 3 mps 722 mmHg 28%

    Tomorrow, 20 October, Sunday

    Time Temperature Precipitation Wind Pressure Humidity
    00:00 +24°C° 0 mm 3 mps 721 mmHg 31%
    01:00 +23°C° 0 mm 4 mps 721 mmHg 29%
    02:00 +23°C° 0 mm 5 mps 721 mmHg 26%
    03:00 +22°C° 0 mm 6 mps 721 mmHg 24%
    04:00 +21°C° 0 mm 7 mps 721 mmHg 26%
    05:00 +20°C° 0 mm 7 mps 721 mmHg 27%
    06:00 +18°C° 0 mm 7 mps 722 mmHg 29%
    07:00 +22°C° 0 mm 7 mps 722 mmHg 25%
    08:00 +24°C° 0 mm 8 mps 722 mmHg 22%
    09:00 +27°C° 0 mm 9 mps 723 mmHg 18%
    10:00 +31°C° 0 mm 9 mps 722 mmHg 16%
    11:00 +33°C° 0 mm 8 mps 722 mmHg 15%
    12:00 +35°C° 0 mm 7 mps 722 mmHg 13%
    13:00 +36°C° 0 mm 6 mps 721 mmHg 12%
    14:00 +37°C° 0 mm 5 mps 721 mmHg 12%
    15:00 +37°C° 0 mm 5 mps 720 mmHg 11%
    16:00 +36°C° 0 mm 5 mps 720 mmHg 12%
    17:00 +35°C° 0 mm 5 mps 720 mmHg 13%
    18:00 +34°C° 0 mm 5 mps 720 mmHg 14%
    19:00 +32°C° 0 mm 6 mps 721 mmHg 15%
    20:00 +29°C° 0 mm 6 mps 721 mmHg 16%
    21:00 +28°C° 0 mm 7 mps 722 mmHg 17%
    22:00 +26°C° 0 mm 7 mps 721 mmHg 18%
    23:00 +24°C° 0 mm 6 mps 721 mmHg 19%

    Day after tomorrow, 21 October, Monday

    Time Temperature Precipitation Wind Pressure Humidity
    00:00 +23°C° 0 mm 6 mps 721 mmHg 20%
    01:00 +22°C° 0 mm 6 mps 721 mmHg 21%
    02:00 +21°C° 0 mm 5 mps 721 mmHg 23%
    03:00 +20°C° 0 mm 5 mps 720 mmHg 24%
    04:00 +19°C° 0 mm 5 mps 721 mmHg 23%
    05:00 +17°C° 0 mm 5 mps 721 mmHg 22%
    06:00 +17°C° 0 mm 6 mps 721 mmHg 21%
    07:00 +21°C° 0 mm 7 mps 722 mmHg 18%
    08:00 +24°C° 0 mm 7 mps 722 mmHg 15%
    09:00 +27°C° 0 mm 8 mps 722 mmHg 12%
    10:00 +29°C° 0 mm 7 mps 722 mmHg 12%
    11:00 +32°C° 0 mm 6 mps 722 mmHg 11%
    12:00 +33°C° 0 mm 6 mps 722 mmHg 11%
    13:00 +34°C° 0 mm 5 mps 721 mmHg 11%
    14:00 +34°C° 0 mm 5 mps 721 mmHg 11%
    15:00 +35°C° 0 mm 4 mps 720 mmHg 11%
    16:00 +34°C° 0 mm 4 mps 720 mmHg 12%
    17:00 +33°C° 0 mm 5 mps 720 mmHg 12%
    18:00 +32°C° 0 mm 5 mps 720 mmHg 13%
    19:00 +30°C° 0 mm 5 mps 721 mmHg 14%
    20:00 +28°C° 0 mm 4 mps 721 mmHg 15%
    21:00 +26°C° 0 mm 4 mps 721 mmHg 15%
    22:00 +25°C° 0 mm 4 mps 721 mmHg 14%
    23:00 +23°C° 0 mm 5 mps 720 mmHg 14%

    22 October, Tuesday

    Time Temperature Precipitation Wind Pressure Humidity
    00:00 +22°C° 0 mm 5 mps 720 mmHg 13%
    01:00 +21°C° 0 mm 5 mps 720 mmHg 14%
    02:00 +20°C° 0 mm 4 mps 720 mmHg 16%
    03:00 +19°C° 0 mm 4 mps 719 mmHg 17%
    04:00 +19°C° 0 mm 4 mps 719 mmHg 18%
    05:00 +18°C° 0 mm 4 mps 720 mmHg 19%
    06:00 +17°C° 0 mm 4 mps 720 mmHg 21%
    07:00 +21°C° 0 mm 5 mps 720 mmHg 17%
    08:00 +24°C° 0 mm 6 mps 721 mmHg 14%
    09:00 +29°C° 0 mm 6 mps 721 mmHg 11%
    10:00 +30°C° 0 mm 6 mps 721 mmHg 10%
    11:00 +33°C° 0 mm 5 mps 721 mmHg 10%
    12:00 +34°C° 0 mm 4 mps 720 mmHg 10%
    13:00 +35°C° 0 mm 4 mps 720 mmHg 10%
    14:00 +36°C° 0 mm 4 mps 719 mmHg 10%
    15:00 +36°C° 0 mm 4 mps 718 mmHg 10%
    16:00 +35°C° 0 mm 4 mps 718 mmHg 11%
    17:00 +34°C° 0 mm 3 mps 718 mmHg 12%
    18:00 +33°C° 0 mm 3 mps 718 mmHg 13%
    19:00 +29°C° 0 mm 4 mps 718 mmHg 14%
    20:00 +27°C° 0 mm 4 mps 718 mmHg 15%
    21:00 +25°C° 0 mm 4 mps 719 mmHg 15%
    22:00 +23°C° 0 mm 4 mps 719 mmHg 16%
    23:00 +22°C° 0 mm 4 mps 718 mmHg 16%

    23 October, Wednesday

    Time Temperature Precipitation Wind Pressure Humidity
    00:00 +21°C° 0 mm 4 mps 718 mmHg 16%
    01:00 +20°C° 0 mm 4 mps 718 mmHg 16%
    02:00 +20°C° 0 mm 4 mps 718 mmHg 16%
    03:00 +19°C° 0 mm 4 mps 718 mmHg 16%
    04:00 +19°C° 0 mm 4 mps 718 mmHg 16%
    05:00 +19°C° 0 mm 4 mps 718 mmHg 17%
    06:00 +18°C° 0 mm 4 mps 718 mmHg 17%
    07:00 +22°C° 0 mm 4 mps 719 mmHg 14%
    08:00 +27°C° 0 mm 5 mps 719 mmHg 11%
    09:00 +32°C° 0 mm 6 mps 720 mmHg 8%
    10:00 +34°C° 0 mm 5 mps 719 mmHg 8%
    11:00 +35°C° 0 mm 4 mps 719 mmHg 8%
    12:00 +37°C° 0 mm 3 mps 718 mmHg 8%
    13:00 +37°C° 0 mm 2 mps 717 mmHg 8%
    14:00 +37°C° 0 mm 2 mps 717 mmHg 8%
    15:00 +37°C° 0 mm 1 mps 716 mmHg 8%
    16:00 +35°C° 0 mm 1 mps 716 mmHg 10%
    17:00 +34°C° 0 mm 1 mps 716 mmHg 11%
    18:00 +34°C° 0 mm 2 mps 716 mmHg 12%
    19:00 +31°C° 0 mm 2 mps 716 mmHg 13%
    20:00 +29°C° 0 mm 3 mps 716 mmHg 14%
    21:00 +27°C° 0 mm 3 mps 716 mmHg 14%
    22:00 +26°C° 0 mm 3 mps 716 mmHg 15%
    23:00 +24°C° 0 mm 3 mps 716 mmHg 16%

    24 October, Thursday

    Time Temperature Precipitation Wind Pressure Humidity
    00:00 +22°C° 0 mm 3 mps 716 mmHg 17%
    01:00 +22°C° 0 mm 3 mps 715 mmHg 17%
    02:00 +21°C° 0 mm 3 mps 715 mmHg 17%
    03:00 +21°C° 0 mm 3 mps 715 mmHg 17%
    04:00 +20°C° 0 mm 2 mps 715 mmHg 18%
    05:00 +20°C° 0 mm 2 mps 715 mmHg 19%
    06:00 +19°C° 0 mm 2 mps 715 mmHg 20%
    07:00 +24°C° 0 mm 2 mps 716 mmHg 19%
    08:00 +28°C° 0 mm 3 mps 716 mmHg 17%
    09:00 +33°C° 0 mm 3 mps 717 mmHg 16%
    10:00 +35°C° 0 mm 4 mps 716 mmHg 14%
    11:00 +37°C° 0 mm 4 mps 716 mmHg 12%
    12:00 +40°C° 0 mm 5 mps 716 mmHg 10%
    13:00 +41°C° 0 mm 5 mps 715 mmHg 10%
    14:00 +41°C° 0 mm 5 mps 715 mmHg 10%
    15:00 +41°C° 0 mm 5 mps 714 mmHg 10%
    16:00 +39°C° 0.1 mm 6 mps 714 mmHg 13%
    17:00 +36°C° 0.1 mm 7 mps 714 mmHg 15%
    18:00 +34°C° 0.1 mm 7 mps 714 mmHg 18%
    19:00 +33°C° 0 mm 7 mps 714 mmHg 21%
    20:00 +30°C° 0 mm 6 mps 714 mmHg 25%
    21:00 +28°C° 0 mm 6 mps 714 mmHg 28%
    22:00 +27°C° 0 mm 6 mps 714 mmHg 31%
    23:00 +26°C° 0 mm 6 mps 714 mmHg 33%
    Show more